Location: Barcelona
(41.3829°N, 2.1774°E)
Time: 18:17:55
(UTC+00:00)

ISS - Visible Passes

Search period start: 19 January 2026 00:00
Search period end: 29 January 2026 00:00
Orbit: 413 x 424 km, 51.6° (Epoch: 19 January)

Date Brightness Start Highest point End Pass type
(mag) Time Alt. Az. Time Alt. Az. Time Alt. Az.
19 Jan -1.7 17:39:18 10° WNW 17:41:42 18° NNW 17:44:07 10° NNE visible
20 Jan -1.5 18:29:28 10° NW 18:31:19 14° N 18:31:19 14° N visible
21 Jan -1.5 17:41:17 10° NW 17:43:13 14° N 17:45:10 10° NNE visible
22 Jan -1.6 18:30:38 10° NNW 18:32:27 16° N 18:32:27 16° N visible
23 Jan -1.6 17:42:41 10° NNW 17:44:41 15° N 17:46:34 10° NE visible
23 Jan -0.8 19:19:10 10° NW 19:19:31 12° NW 19:19:31 12° NW visible
24 Jan -2.2 18:31:21 10° NW 18:33:40 23° N 18:33:40 23° N visible
25 Jan -2.0 17:43:29 10° NNW 17:45:58 19° NNE 17:47:53 13° NE visible
25 Jan -1.2 19:19:49 10° NW 19:20:50 18° NW 19:20:50 18° NW visible
26 Jan -3.4 18:31:53 10° NW 18:35:07 46° NNE 18:35:08 46° NNE visible
27 Jan -2.8 17:43:58 10° NW 17:47:00 31° NNE 17:49:34 13° E visible
27 Jan -1.5 19:20:40 10° WNW 19:22:31 26° W 19:22:31 26° W visible
28 Jan -3.5 18:32:29 10° WNW 18:35:48 67° SW 18:37:08 32° SE visible
